Regional Weather Roundup
Issued by NWS

Home | Current Version | Previous Version | Graphics & Text | Print | Product List | Glossary On
Versions: 1 2 3 4 5 6 7 8 9 10 11 12 13 14 15 16 17 18 19 20 21 22 23 24 25 26 27 28 29 30 31 32 33 34 35 36 37 38 39 40 41 42 43 44 45 46 47 48 49 50
000
ASUS45 KCYS 191510
RWRWY

WYOMING REGIONAL WEATHER ROUNDUP
NATIONAL WEATHER SERVICE CHEYENNE WY
900 AM MDT TUE AUG 19 2014

NOTE:  "FAIR" INDICATES FEW OR NO CLOUDS BELOW 12,000 FEET
WITH NO SIGNIFICANT WEATHER AND/OR OBSTRUCTIONS TO VISIBILITY.

WYZ001-191600-
YELLOWSTONE NATIONAL PARK

CITY           SKY/WX    TMP DP  RH WIND       PRES   REMARKS
LK YELLOWSTONE   N/A     53  46  77 CALM      30.16S
W YELLOWSTONE  NOT AVBL

$$
WYZ002>013-054>058-071-098>099-191600-
NORTHERN WYOMING

CITY           SKY/WX    TMP DP  RH WIND       PRES   REMARKS
JACKSON        SUNNY     55  43  62 CALM      30.08F
CODY           SUNNY     72  39  30 SW8       29.93S
GREYBULL       SUNNY     66  45  46 SW3       29.88S
WORLAND        SUNNY     64  46  52 CALM      29.89S
SHERIDAN       SUNNY     67  52  58 NE3       29.86S
BUFFALO        MOSUNNY   73  44  35 S5        29.93S
GILLETTE       MOSUNNY   71  51  49 S14       29.90S
HULETT         FAIR      72  54  53 MISG      29.90
NEWCASTLE      FAIR      73  46  38 S12       29.91

$$
WYZ014>020-022>026-101>103-191600-
CENTRAL WYOMING

CITY           SKY/WX    TMP DP  RH WIND       PRES   REMARKS
BIG PINEY      CLOUDY    52  39  61 S3        30.11R
PINEDALE       PTSUNNY   52  41  66 W5        30.13R
DUBOIS         PTSUNNY   55  37  50 N5        30.10R
LANDER         PTSUNNY   62  44  51 CALM      29.98R
RIVERTON       MOSUNNY   69  37  30 VRB3      29.98F
CASPER         SUNNY     69  41  36 W9        29.97S
DOUGLAS        NOT AVBL

$$
WYZ021-027>030-104>119-191600-
SOUTHERN WYOMING

CITY           SKY/WX    TMP DP  RH WIND       PRES   REMARKS
EVANSTON       CLOUDY    62  43  49 SW9       30.14R
KEMMERER       CLOUDY    57  41  54 NW5       30.13S
FORT BRIDGER   CLOUDY    64  42  45 SW6       30.16R
ROCK SPRINGS   CLOUDY    65  34  31 SW12      30.09R
DIXON          FAIR      59  41  52 CALM      30.14R
RAWLINS        PTSUNNY   65  35  33 S3        30.10R
SARATOGA       FAIR      64  37  36 MISG      30.13S
LARAMIE        PTSUNNY   62  39  42 S7        30.13R
CHEYENNE       SUNNY     73  50  44 SW12      30.02S
TORRINGTON     SUNNY     69  56  62 SE10      29.89F
PINE BLUFFS    FAIR      70  52  52 S5        29.98S

$$



USA.gov is the U.S. government's official web portal to all federal, state and local government web resources and services.